Home > Weather > Pasadena > Past weeks

Flag for USA Past Weather in Pasadena, California, USA — Yesterday and Last 2 Weeks

Now
72 °F

Sunny.


Feels Like: 77 °F
Forecast: 53 / 72 °F
Wind: 12 mph from South

Location: Bob Hope Airport

Current Time: May 26, 2016 at 3:41:00 PM

Latest Report: May 26, 2016 at 2:53 PM


Visibility: 10 mi

Pressure: 29.96 "Hg

Humidity: 48%

Dew Point: 51 °F

Location of PasadenaLocation

Past Weather in Pasadena — Graph

°F

Pasadena Temperature Yesterday

Maximum temperature yesterday: 67 °F (at 3:53 PM)
Minimum temperature yesterday: 55 °F (at 2:53 AM)
Average temperature yesterday: 60 °F

High & Low Weather Summary for the Past Weeks

 TemperatureHumidityPressure
High84 °F (May 13, 3:53 PM)94% (May 12, 5:01 AM)30.06 "Hg (May 12, 5:01 AM)
Low50 °F (May 22, 5:53 AM)29% (May 13, 2:53 PM)29.77 "Hg (May 19, 5:53 PM)
Average63 °F68%29.92 "Hg
* Reported May 11 1:53 PM — May 26 1:53 PM, Pasadena, Weather by CustomWeather, © 2016

Note: Actual official high and low records may vary slightly from our data, if they occured in-between our weather recording intervals... More about our weather records

Advertising

Pasadena Weather History for the Previous 24 Hours

Scroll right to see more
 ConditionsComfort  
Time TempWeatherWind HumidityBarometerVisibility
1:53 PM
Thu, May 26
71 °FSunny.7 mph49%29.97 "Hg10 mi
12:53 PM71 °FSunny.9 mph49%29.99 "Hg10 mi
11:53 AM70 °FSunny.No wind47%30.00 "Hg10 mi
10:53 AM66 °FSunny.3 mph54%30.02 "Hg10 mi
9:53 AM63 °FPassing clouds.5 mph58%30.03 "Hg10 mi
8:53 AM61 °FScattered clouds.8 mph67%30.04 "Hg10 mi
7:53 AM58 °FScattered clouds.No wind75%30.04 "Hg10 mi
6:53 AM56 °FPartly sunny.No wind77%30.04 "Hg10 mi
6:00 AM54 °FPassing clouds.No wind77%30.06 "Hg10 mi
4:53 AM54 °FClear.No wind80%30.01 "Hg10 mi
3:53 AM55 °FClear.No wind80%30.01 "Hg10 mi
2:53 AM56 °FClear.6 mph81%30.02 "Hg10 mi
1:53 AM56 °FClear.6 mph81%30.02 "Hg10 mi
12:53 AM58 °FClear.3 mph75%30.03 "Hg10 mi
11:53 PM
Wed, May 25
58 °FClear.5 mph75%30.04 "Hg10 mi
10:53 PM58 °FClear.7 mph75%30.05 "Hg10 mi
9:53 PM59 °FClear.9 mph72%30.04 "Hg10 mi
8:53 PM59 °FSunny.7 mph72%30.03 "Hg10 mi
7:53 PM61 °FPartly sunny.7 mph65%30.03 "Hg10 mi
6:53 PM64 °FPassing clouds.9 mph52%30.02 "Hg10 mi
5:53 PM65 °FSunny.10 mph45%30.02 "Hg10 mi
4:53 PM67 °FSunny.10 mph39%30.02 "Hg10 mi
3:53 PM67 °FPassing clouds.13 mph41%30.03 "Hg10 mi
Weather by CustomWeather, © 2016

See weather overviewHow to use our weather pages